Weather History for HEAR - January, 2013

Change the Weather History Date:

Thursday, January 3, 2013

  Actual Average Record
Temperature  
Mean Temperature 54 °F -  
Max Temperature 68 °F 66 °F - ()
Min Temperature 41 °F 46 °F - ()
Degree Days  
Heating Degree Days 10    
Growing Degree Days 4 (Base 50)    
Moisture  
Dew Point 46 °F    
Average Humidity 81    
Maximum Humidity 100    
Minimum Humidity 34    
Precipitation  
Precipitation 0.00 in 0.04 in - ()
Sea Level Pressure  
Sea Level Pressure 30.23 in    
Wind  
Wind Speed 4 mph ()    
Max Wind Speed 8 mph    
Max Gust Speed -    
Visibility 4.7 miles    
Events      
T = Trace of Precipitation, MM = Missing Value Source: Averaged Metar Reports

Daily Weather History Graph

Daily Weather History Graph

Search for Another Location

Airport or City:

Trip Planner

Search our weather history database for the weather conditions in past years. The results will help you decide how hot, cold, wet, or windy it might be!

Date:

Astronomy

Jan. 03, 2013 Rise Set
Actual Time 6:43 AM EET 4:55 PM EET
Civil Twilight 6:16 AM EET 5:21 PM EET
Nautical Twilight 5:46 AM EET 5:51 PM EET
Astronomical Twilight 5:17 AM EET 6:21 PM EET
Moon 10:42 PM EET (1/3) 10:08 AM EET (1/3)
Length of Visible Light 11h 04m
Length of Day
10h 11m
Waning Gibbous, 68% of the Moon is Illuminated
Jan 3
Waning Gibbous
Jan 5
Last Quarter
Jan 11
New
Jan 19
First Quarter
Jan 27
Full

Hourly Weather History & Observations

Time (EET) Temp. Windchill Dew Point Humidity Pressure Visibility Wind Dir Wind Speed Gust Speed Precip Events Conditions
12:00 AM 48.2 °F - 42.8 °F 82% 30.24 in - South 3.5 mph - N/A   Clear
1:00 AM 44.6 °F 42.2 °F 42.8 °F 93% 30.24 in - South 4.6 mph - N/A   Clear
2:00 AM 45 °F - 43 °F 89% 30.27 in 6 mi SSW 3.5 mph - -  
2:00 AM 44.6 °F 43.1 °F 42.8 °F 93% 30.24 in - SSW 3.5 mph - N/A   Clear
3:00 AM 42.8 °F 40.1 °F 41.0 °F 93% 30.24 in - South 4.6 mph - N/A   Clear
4:00 AM 42.8 °F 41.1 °F 42.8 °F 100% 30.24 in - South 3.5 mph - N/A   Clear
5:00 AM 42.8 °F 41.1 °F 41.0 °F 93% 30.24 in - South 3.5 mph - N/A   Clear
6:00 AM 41.0 °F 39.0 °F 41.0 °F 100% 30.27 in - South 3.5 mph - N/A   Clear
7:00 AM 41.0 °F - 41.0 °F 100% 30.27 in 3.7 mi South 2.3 mph - N/A   Unknown
8:00 AM 46 °F - 45 °F 95% 30.30 in 4 mi South 2.3 mph - -   Mist
8:00 AM 46.4 °F - 44.6 °F 93% 30.27 in 3.7 mi South 2.3 mph - N/A   Unknown
9:00 AM 53.6 °F - 46.4 °F 77% 30.30 in - South 3.5 mph - N/A   Clear
10:00 AM 59.0 °F - 46.4 °F 63% 30.30 in - SSE 5.8 mph - N/A   Clear
12:00 PM 66.2 °F - 46.4 °F 49% 30.24 in - ESE 8.1 mph - N/A   Clear
2:00 PM 68 °F - 46 °F 34% 30.22 in 6 mi NNE 6.9 mph - -  
2:00 PM 68.0 °F - 46.4 °F 46% 30.21 in - NNE 6.9 mph - N/A   Clear
3:00 PM 66.2 °F - 50.0 °F 56% 30.21 in - NNE 6.9 mph - N/A   Clear
4:00 PM 66.2 °F - 53.6 °F 64% 30.18 in - North 8.1 mph - N/A   Clear
5:00 PM 62.6 °F - 53.6 °F 72% 30.21 in - North 4.6 mph - N/A   Clear
6:00 PM 59.0 °F - 53.6 °F 82% 30.21 in - North 2.3 mph - N/A   Clear
7:00 PM 55.4 °F - 51.8 °F 88% 30.21 in - NNE 4.6 mph - N/A   Clear
8:00 PM 55.4 °F - 50.0 °F 82% 30.21 in - NE 2.3 mph - N/A   Clear
9:00 PM 51.8 °F - 48.2 °F 88% 30.18 in - Calm Calm - N/A   Clear
10:00 PM 50.0 °F - 48.2 °F 94% 30.18 in - South 4.6 mph - N/A   Clear
11:00 PM 48.2 °F - 48.2 °F 100% 30.18 in - South 4.6 mph - N/A   Clear